TimeEDT,TemperatureF,Dew PointF,Humidity,Sea Level PressureIn,VisibilityMPH,Wind Direction,Wind SpeedMPH,Gust SpeedMPH,PrecipitationIn,Events,Conditions,WindDirDegrees,DateUTC
12:51 AM,75.9,66.0,71,29.98,10.0,WSW,9.2,-,N/A,,Clear,250,2013-07-08 04:51:00
1:51 AM,75.0,66.0,73,29.98,10.0,WSW,8.1,-,N/A,,Clear,250,2013-07-08 05:51:00
2:51 AM,73.0,66.0,79,29.97,10.0,WSW,8.1,-,N/A,,Clear,250,2013-07-08 06:51:00
3:51 AM,72.0,66.9,84,29.98,10.0,West,5.8,-,N/A,,Clear,270,2013-07-08 07:51:00
4:51 AM,72.0,66.0,81,29.99,10.0,WSW,3.5,-,N/A,,Clear,240,2013-07-08 08:51:00
5:51 AM,72.0,66.0,81,30.01,10.0,Calm,Calm,-,N/A,,Clear,0,2013-07-08 09:51:00
6:51 AM,73.0,66.9,81,30.02,10.0,SW,8.1,-,N/A,,Clear,230,2013-07-08 10:51:00
7:51 AM,75.9,68.0,76,30.02,10.0,WNW,5.8,-,N/A,,Clear,300,2013-07-08 11:51:00
8:51 AM,79.0,69.1,72,30.02,10.0,NW,5.8,-,N/A,,Clear,310,2013-07-08 12:51:00
9:51 AM,82.0,69.1,65,30.01,10.0,Variable,5.8,-,N/A,,Clear,0,2013-07-08 13:51:00
10:51 AM,84.9,68.0,57,30.01,10.0,WNW,9.2,-,N/A,,Clear,290,2013-07-08 14:51:00
11:51 AM,86.0,66.0,51,30.01,10.0,West,9.2,-,N/A,,Clear,270,2013-07-08 15:51:00
12:51 PM,87.1,68.0,53,30.01,10.0,West,9.2,-,N/A,,Partly Cloudy,260,2013-07-08 16:51:00
1:51 PM,89.1,66.9,48,30.00,10.0,WSW,8.1,16.1,N/A,,Partly Cloudy,240,2013-07-08 17:51:00
2:51 PM,88.0,66.0,48,29.98,10.0,West,8.1,19.6,N/A,,Partly Cloudy,260,2013-07-08 18:51:00
3:51 PM,88.0,66.9,49,29.97,10.0,WNW,8.1,-,N/A,,Partly Cloudy,290,2013-07-08 19:51:00
4:51 PM,88.0,66.0,48,29.96,10.0,WSW,8.1,-,N/A,,Partly Cloudy,250,2013-07-08 20:51:00
5:51 PM,88.0,66.0,48,29.95,10.0,WSW,9.2,-,N/A,,Scattered Clouds,250,2013-07-08 21:51:00
6:51 PM,87.1,66.9,51,29.95,10.0,WSW,11.5,-,N/A,,Clear,240,2013-07-08 22:51:00
7:51 PM,84.0,64.9,53,29.98,10.0,West,13.8,19.6,N/A,,Clear,270,2013-07-08 23:51:00
8:51 PM,80.6,66.2,61,30.00,10.0,WSW,11.5,-,N/A,,Clear,240,2013-07-09 00:51:00
9:51 PM,81.0,66.9,62,30.03,10.0,SW,6.9,-,N/A,,Clear,220,2013-07-09 01:51:00
10:51 PM,79.0,66.9,66,30.02,10.0,WSW,4.6,-,N/A,,Clear,250,2013-07-09 02:51:00
11:51 PM,78.1,66.9,68,30.03,10.0,West,6.9,-,N/A,,Clear,260,2013-07-09 03:51:00